Location: *
(46.1833°N, 22.7667°E)
Time: 05:06:03
(UTC+00:00)

Cosmos 389 Rocket - Pass Details

Date: 17 September 2019
Orbit: 444 x 478 km, 81.1° (Epoch: 22 October)

Event Time Altitude Azimuth Distance (km) Brightness Sun altitude
Rises 18:26:59 0° 347° (NNW) 2,457 6.7 -19.2°
Reaches altitude 10° 18:29:03 10° 346° (NNW) 1,578 5.7 -19.5°
Maximum altitude 18:32:29 75° 261° (W) 467 2.5 -20.0°
Enters shadow 18:33:07 55° 194° (SSW) 542 2.6 -20.1°
